Location: Azul
(36.7830°S, 59.8500°W)
Time: 10:24:54
(UTC-03:00)

NOAA 19 - Pass Details

Date: 24 October 2021
Orbit: 840 x 861 km, 99.2° (Epoch: 07 December)

Event Time Altitude Azimuth Distance (km) Brightness Sun altitude
Rises 21:37:26 0° 181° (S) 3,473 8.9 -24.4°
Reaches altitude 10° 21:40:14 10° 193° (SSW) 2,529 8.3 -24.8°
Maximum altitude 21:44:38 24° 245° (WSW) 1,712 7.5 -25.5°
Drops below altitude 10° 21:49:01 10° 297° (WNW) 2,505 7.9 -26.2°
Sets 21:51:47 0° 310° (NW) 3,432 8.5 -26.6°
